Location: Caltech
(34.1382°N, 118.1253°W)
Time: 02:37:59
(UTC-07:00)

PCSat - Visible Passes

Search period start: 22 October 2014 00:00
Search period end: 01 November 2014 00:00
Orbit: 786 x 796 km, 67.1° (Epoch: 20 October)

Date Brightness Start Highest point End Pass type
(mag) Time Alt. Az. Time Alt. Az. Time Alt. Az.
22 Oct 10.9 04:21:32 35° NE 04:21:32 35° NE 04:24:41 10° NNE visible
22 Oct 11.1 06:02:19 16° WNW 06:03:10 17° NW 06:06:36 10° N visible
23 Oct 12.0 03:52:34 18° NE 03:52:34 18° NE 03:53:56 10° NE visible
23 Oct 10.9 05:33:21 22° NW 05:33:21 22° NW 05:36:37 10° N visible
24 Oct 11.2 05:04:14 21° NNW 05:04:14 21° NNW 05:06:25 10° N visible
25 Oct 11.7 04:35:01 16° N 04:35:01 16° N 04:36:06 10° NNE visible
